Time,TemperatureF,DewpointF,PressureIn,WindDirection,WindDirectionDegrees,WindSpeedMPH,WindSpeedGustMPH,Humidity,HourlyPrecipIn,Conditions,Clouds,dailyrainin,SolarRadiationWatts/m^2,SoftwareType,DateUTC
2013-08-03 00:02:00,57.0,51.0,29.96,North,-999,-999.0,-999.0,79,-99.99,,,-99.99,1420.000000,,2013-08-03 05:02:00,
2013-08-03 00:12:00,56.0,50.0,29.96,North,-999,-999.0,-999.0,79,-99.99,,,-99.99,1420.000000,,2013-08-03 05:12:00,
2013-08-03 00:22:00,56.0,50.0,29.96,North,-999,-999.0,-999.0,79,-99.99,,,-99.99,1420.000000,,2013-08-03 05:22:00,
2013-08-03 00:32:00,56.0,50.0,29.96,North,-999,-999.0,-999.0,79,-99.99,,,-99.99,1420.000000,,2013-08-03 05:32:00,
2013-08-03 00:52:00,56.0,50.0,29.96,North,-999,-999.0,-999.0,80,-99.99,,,-99.99,1420.000000,,2013-08-03 05:52:00,
2013-08-03 01:02:00,56.0,50.0,29.96,North,-999,-999.0,-999.0,80,-99.99,,,-99.99,1420.000000,,2013-08-03 06:02:00,
2013-08-03 01:12:00,56.0,50.0,29.96,North,-999,-999.0,-999.0,80,-99.99,,,-99.99,1420.000000,,2013-08-03 06:12:00,
2013-08-03 01:23:00,56.0,50.0,29.96,North,-999,-999.0,-999.0,81,-99.99,,,-99.99,1420.000000,,2013-08-03 06:23:00,
2013-08-03 01:32:00,57.0,51.0,29.99,North,-999,-999.0,-999.0,81,-99.99,,,-99.99,1420.000000,,2013-08-03 06:32:00,
2013-08-03 01:42:00,56.0,50.0,29.99,North,-999,-999.0,-999.0,81,-99.99,,,-99.99,1420.000000,,2013-08-03 06:42:00,
2013-08-03 01:52:00,56.0,51.0,29.99,North,-999,-999.0,-999.0,82,-99.99,,,-99.99,1420.000000,,2013-08-03 06:52:00,
2013-08-03 02:02:00,57.0,52.0,29.99,North,-999,-999.0,-999.0,82,-99.99,,,-99.99,1420.000000,,2013-08-03 07:02:00,
2013-08-03 02:12:00,56.0,51.0,29.99,North,-999,-999.0,-999.0,82,-99.99,,,-99.99,1420.000000,,2013-08-03 07:12:00,
2013-08-03 02:22:00,56.0,51.0,29.99,North,-999,-999.0,-999.0,82,-99.99,,,-99.99,1420.000000,,2013-08-03 07:22:00,
2013-08-03 02:32:00,56.0,51.0,29.99,North,-999,-999.0,-999.0,82,-99.99,,,-99.99,1420.000000,,2013-08-03 07:32:00,
2013-08-03 02:43:00,56.0,51.0,29.99,North,-999,-999.0,-999.0,82,-99.99,,,-99.99,1420.000000,,2013-08-03 07:43:00,
2013-08-03 02:52:00,55.0,50.0,29.99,North,-999,-999.0,-999.0,83,-99.99,,,-99.99,1420.000000,,2013-08-03 07:52:00,
2013-08-03 03:02:00,55.0,50.0,29.99,North,-999,-999.0,-999.0,84,-99.99,,,-99.99,1420.000000,,2013-08-03 08:02:00,
2013-08-03 03:22:00,55.0,50.0,29.99,North,-999,-999.0,-999.0,84,-99.99,,,-99.99,1420.000000,,2013-08-03 08:22:00,
2013-08-03 03:32:00,55.0,50.0,29.99,North,-999,-999.0,-999.0,84,-99.99,,,-99.99,1420.000000,,2013-08-03 08:32:00,
2013-08-03 03:43:00,55.0,50.0,29.99,North,-999,-999.0,-999.0,84,-99.99,,,-99.99,1420.000000,,2013-08-03 08:43:00,
2013-08-03 06:32:00,53.0,50.0,30.02,North,-999,-999.0,-999.0,90,-99.99,,,-99.99,1420.000000,,2013-08-03 11:32:00,
2013-08-03 06:43:00,54.0,51.0,30.05,North,-999,-999.0,-999.0,89,-99.99,,,-99.99,1420.000000,,2013-08-03 11:43:00,
2013-08-03 06:53:00,54.0,51.0,30.05,North,-999,-999.0,-999.0,89,-99.99,,,-99.99,1420.000000,,2013-08-03 11:53:00,
2013-08-03 07:03:00,55.0,52.0,30.05,North,-999,-999.0,-999.0,89,-99.99,,,-99.99,1420.000000,,2013-08-03 12:03:00,
2013-08-03 07:12:00,55.0,52.0,30.05,North,-999,-999.0,-999.0,89,-99.99,,,-99.99,1420.000000,,2013-08-03 12:12:00,
2013-08-03 07:22:00,56.0,53.0,30.05,North,-999,-999.0,-999.0,89,-99.99,,,-99.99,1420.000000,,2013-08-03 12:22:00,
2013-08-03 07:33:00,56.0,53.0,30.05,North,-999,-999.0,-999.0,89,-99.99,,,-99.99,1420.000000,,2013-08-03 12:33:00,
2013-08-03 10:02:00,72.0,53.0,30.05,North,-999,-999.0,-999.0,51,-99.99,,,-99.99,1420.000000,,2013-08-03 15:02:00,
2013-08-03 10:12:00,72.0,54.0,30.05,North,-999,-999.0,-999.0,53,-99.99,,,-99.99,1420.000000,,2013-08-03 15:12:00,
2013-08-03 10:23:00,72.0,53.0,30.05,North,-999,-999.0,-999.0,51,-99.99,,,-99.99,1420.000000,,2013-08-03 15:23:00,
2013-08-03 10:32:00,72.0,53.0,30.05,North,-999,-999.0,-999.0,52,-99.99,,,-99.99,1420.000000,,2013-08-03 15:32:00,
2013-08-03 10:53:00,73.0,55.0,30.05,North,-999,-999.0,-999.0,53,-99.99,,,-99.99,1420.000000,,2013-08-03 15:53:00,
2013-08-03 11:02:00,73.0,55.0,30.05,North,-999,-999.0,-999.0,53,-99.99,,,-99.99,1420.000000,,2013-08-03 16:02:00,
2013-08-03 11:12:00,74.0,52.0,30.08,North,-999,-999.0,-999.0,47,-99.99,,,-99.99,1420.000000,,2013-08-03 16:12:00,
2013-08-03 11:23:00,74.0,52.0,30.08,North,-999,-999.0,-999.0,47,-99.99,,,-99.99,1420.000000,,2013-08-03 16:23:00,
2013-08-03 11:33:00,75.0,52.0,30.05,North,-999,-999.0,-999.0,45,-99.99,,,-99.99,1420.000000,,2013-08-03 16:33:00,
2013-08-03 11:43:00,75.0,52.0,30.05,North,-999,-999.0,-999.0,44,-99.99,,,-99.99,1420.000000,,2013-08-03 16:43:00,
2013-08-03 11:53:00,75.0,52.0,30.05,North,-999,-999.0,-999.0,44,-99.99,,,-99.99,1420.000000,,2013-08-03 16:53:00,
2013-08-03 12:03:00,77.0,53.0,30.08,North,-999,-999.0,-999.0,43,-99.99,,,-99.99,1420.000000,,2013-08-03 17:03:00,
2013-08-03 12:12:00,78.0,51.0,30.08,North,-999,-999.0,-999.0,39,-99.99,,,-99.99,1420.000000,,2013-08-03 17:12:00,
2013-08-03 12:22:00,78.0,51.0,30.08,North,-999,-999.0,-999.0,39,-99.99,,,-99.99,1420.000000,,2013-08-03 17:22:00,
2013-08-03 12:32:00,79.0,53.0,30.08,North,-999,-999.0,-999.0,40,-99.99,,,-99.99,1420.000000,,2013-08-03 17:32:00,
2013-08-03 12:52:00,78.0,51.0,30.08,North,-999,-999.0,-999.0,39,-99.99,,,-99.99,1420.000000,,2013-08-03 17:52:00,
2013-08-03 13:02:00,77.0,50.0,30.08,North,-999,-999.0,-999.0,39,-99.99,,,-99.99,1420.000000,,2013-08-03 18:02:00,
2013-08-03 13:12:00,77.0,51.0,30.08,North,-999,-999.0,-999.0,40,-99.99,,,-99.99,1420.000000,,2013-08-03 18:12:00,
2013-08-03 13:22:00,78.0,52.0,30.08,North,-999,-999.0,-999.0,40,-99.99,,,-99.99,1420.000000,,2013-08-03 18:22:00,
2013-08-03 13:32:00,78.0,52.0,30.08,North,-999,-999.0,-999.0,41,-99.99,,,-99.99,1420.000000,,2013-08-03 18:32:00,
2013-08-03 13:43:00,78.0,52.0,30.08,North,-999,-999.0,-999.0,41,-99.99,,,-99.99,1420.000000,,2013-08-03 18:43:00,
2013-08-03 13:53:00,78.0,52.0,30.05,North,-999,-999.0,-999.0,40,-99.99,,,-99.99,1420.000000,,2013-08-03 18:53:00,
2013-08-03 14:02:00,78.0,50.0,30.05,North,-999,-999.0,-999.0,38,-99.99,,,-99.99,1420.000000,,2013-08-03 19:02:00,
2013-08-03 14:12:00,77.0,50.0,30.05,North,-999,-999.0,-999.0,39,-99.99,,,-99.99,1420.000000,,2013-08-03 19:12:00,
2013-08-03 14:22:00,78.0,51.0,30.05,North,-999,-999.0,-999.0,39,-99.99,,,-99.99,1420.000000,,2013-08-03 19:22:00,
2013-08-03 14:32:00,79.0,49.0,30.05,North,-999,-999.0,-999.0,35,-99.99,,,-99.99,1420.000000,,2013-08-03 19:32:00,
2013-08-03 14:43:00,79.0,48.0,30.05,North,-999,-999.0,-999.0,34,-99.99,,,-99.99,1420.000000,,2013-08-03 19:43:00,
2013-08-03 14:52:00,79.0,50.0,30.05,North,-999,-999.0,-999.0,36,-99.99,,,-99.99,1420.000000,,2013-08-03 19:52:00,
2013-08-03 15:02:00,78.0,49.0,30.05,North,-999,-999.0,-999.0,36,-99.99,,,-99.99,1420.000000,,2013-08-03 20:02:00,
2013-08-03 15:12:00,78.0,49.0,30.05,North,-999,-999.0,-999.0,36,-99.99,,,-99.99,1420.000000,,2013-08-03 20:12:00,
2013-08-03 15:22:00,78.0,49.0,30.05,North,-999,-999.0,-999.0,36,-99.99,,,-99.99,1420.000000,,2013-08-03 20:22:00,
2013-08-03 15:32:00,78.0,49.0,30.05,North,-999,-999.0,-999.0,36,-99.99,,,-99.99,1420.000000,,2013-08-03 20:32:00,
2013-08-03 15:42:00,76.0,49.0,30.05,North,-999,-999.0,-999.0,39,-99.99,,,-99.99,1420.000000,,2013-08-03 20:42:00,
2013-08-03 15:52:00,77.0,50.0,30.05,North,-999,-999.0,-999.0,39,-99.99,,,-99.99,1420.000000,,2013-08-03 20:52:00,
2013-08-03 16:02:00,75.0,48.0,30.05,North,-999,-999.0,-999.0,39,-99.99,,,-99.99,1420.000000,,2013-08-03 21:02:00,
2013-08-03 16:12:00,75.0,50.0,30.05,North,-999,-999.0,-999.0,41,-99.99,,,-99.99,1420.000000,,2013-08-03 21:12:00,
2013-08-03 16:22:00,75.0,50.0,30.05,North,-999,-999.0,-999.0,41,-99.99,,,-99.99,1420.000000,,2013-08-03 21:22:00,
2013-08-03 16:32:00,78.0,50.0,30.05,North,-999,-999.0,-999.0,38,-99.99,,,-99.99,1420.000000,,2013-08-03 21:32:00,
2013-08-03 16:42:00,77.0,50.0,30.05,North,-999,-999.0,-999.0,39,-99.99,,,-99.99,1420.000000,,2013-08-03 21:42:00,
2013-08-03 16:52:00,76.0,50.0,30.05,North,-999,-999.0,-999.0,40,-99.99,,,-99.99,1420.000000,,2013-08-03 21:52:00,
2013-08-03 17:02:00,76.0,50.0,30.05,North,-999,-999.0,-999.0,40,-99.99,,,-99.99,1420.000000,,2013-08-03 22:02:00,
2013-08-03 17:12:00,75.0,50.0,30.05,North,-999,-999.0,-999.0,41,-99.99,,,-99.99,1420.000000,,2013-08-03 22:12:00,
2013-08-03 17:22:00,74.0,49.0,30.05,North,-999,-999.0,-999.0,42,-99.99,,,-99.99,1420.000000,,2013-08-03 22:22:00,
2013-08-03 17:32:00,76.0,50.0,30.05,North,-999,-999.0,-999.0,40,-99.99,,,-99.99,1420.000000,,2013-08-03 22:32:00,
2013-08-03 17:43:00,77.0,50.0,30.05,North,-999,-999.0,-999.0,39,-99.99,,,-99.99,1420.000000,,2013-08-03 22:43:00,
2013-08-03 17:52:00,77.0,49.0,30.05,North,-999,-999.0,-999.0,37,-99.99,,,-99.99,1420.000000,,2013-08-03 22:52:00,
2013-08-03 18:02:00,78.0,50.0,30.05,North,-999,-999.0,-999.0,37,-99.99,,,-99.99,1420.000000,,2013-08-03 23:02:00,
2013-08-03 18:12:00,77.0,47.0,30.05,North,-999,-999.0,-999.0,35,-99.99,,,-99.99,1420.000000,,2013-08-03 23:12:00,
2013-08-03 18:22:00,76.0,46.0,30.05,North,-999,-999.0,-999.0,35,-99.99,,,-99.99,1420.000000,,2013-08-03 23:22:00,
2013-08-03 18:32:00,76.0,46.0,30.05,North,-999,-999.0,-999.0,35,-99.99,,,-99.99,1420.000000,,2013-08-03 23:32:00,
2013-08-03 18:43:00,76.0,47.0,30.05,North,-999,-999.0,-999.0,36,-99.99,,,-99.99,1420.000000,,2013-08-03 23:43:00,
2013-08-03 18:52:00,76.0,46.0,30.05,North,-999,-999.0,-999.0,35,-99.99,,,-99.99,1420.000000,,2013-08-03 23:52:00,
2013-08-03 19:02:00,76.0,46.0,30.05,North,-999,-999.0,-999.0,35,-99.99,,,-99.99,1420.000000,,2013-08-04 00:02:00,
2013-08-03 19:12:00,75.0,45.0,30.05,North,-999,-999.0,-999.0,35,-99.99,,,-99.99,1420.000000,,2013-08-04 00:12:00,
2013-08-03 19:22:00,75.0,45.0,30.05,North,-999,-999.0,-999.0,35,-99.99,,,-99.99,1420.000000,,2013-08-04 00:22:00,
2013-08-03 19:32:00,75.0,45.0,30.05,North,-999,-999.0,-999.0,35,-99.99,,,-99.99,1420.000000,,2013-08-04 00:32:00,
2013-08-03 19:42:00,75.0,45.0,30.05,North,-999,-999.0,-999.0,35,-99.99,,,-99.99,1420.000000,,2013-08-04 00:42:00,
2013-08-03 19:53:00,73.0,45.0,30.05,North,-999,-999.0,-999.0,37,-99.99,,,-99.99,1420.000000,,2013-08-04 00:53:00,
2013-08-03 20:02:00,72.0,45.0,30.05,North,-999,-999.0,-999.0,38,-99.99,,,-99.99,1420.000000,,2013-08-04 01:02:00,
2013-08-03 20:12:00,72.0,45.0,30.05,North,-999,-999.0,-999.0,38,-99.99,,,-99.99,1420.000000,,2013-08-04 01:12:00,
2013-08-03 20:22:00,71.0,47.0,30.05,North,-999,-999.0,-999.0,42,-99.99,,,-99.99,1420.000000,,2013-08-04 01:22:00,
2013-08-03 20:32:00,71.0,47.0,30.05,North,-999,-999.0,-999.0,42,-99.99,,,-99.99,1420.000000,,2013-08-04 01:32:00,
2013-08-03 20:42:00,71.0,47.0,30.05,North,-999,-999.0,-999.0,42,-99.99,,,-99.99,1420.000000,,2013-08-04 01:42:00,
2013-08-03 20:53:00,71.0,47.0,30.05,North,-999,-999.0,-999.0,42,-99.99,,,-99.99,1420.000000,,2013-08-04 01:53:00,
2013-08-03 21:02:00,71.0,47.0,30.05,North,-999,-999.0,-999.0,42,-99.99,,,-99.99,1420.000000,,2013-08-04 02:02:00,
2013-08-03 21:22:00,64.0,47.0,30.05,North,-999,-999.0,-999.0,55,-99.99,,,-99.99,1420.000000,,2013-08-04 02:22:00,
2013-08-03 21:32:00,63.0,47.0,30.05,North,-999,-999.0,-999.0,56,-99.99,,,-99.99,1420.000000,,2013-08-04 02:32:00,
2013-08-03 21:42:00,63.0,48.0,30.08,North,-999,-999.0,-999.0,57,-99.99,,,-99.99,1420.000000,,2013-08-04 02:42:00,
2013-08-03 21:52:00,60.0,48.0,30.08,North,-999,-999.0,-999.0,64,-99.99,,,-99.99,1420.000000,,2013-08-04 02:52:00,
2013-08-03 22:02:00,60.0,48.0,30.08,North,-999,-999.0,-999.0,64,-99.99,,,-99.99,1420.000000,,2013-08-04 03:02:00,
2013-08-03 22:12:00,60.0,48.0,30.08,North,-999,-999.0,-999.0,64,-99.99,,,-99.99,1420.000000,,2013-08-04 03:12:00,
2013-08-03 22:20:00,59.0,48.0,30.08,North,-999,-999.0,-999.0,66,-99.99,,,-99.99,1420.000000,,2013-08-04 03:20:00,
2013-08-03 22:22:00,60.0,48.0,30.08,North,-999,-999.0,-999.0,64,-99.99,,,-99.99,1420.000000,,2013-08-04 03:22:00,
2013-08-03 22:32:00,59.0,48.0,30.08,North,-999,-999.0,-999.0,66,-99.99,,,-99.99,1420.000000,,2013-08-04 03:32:00,
2013-08-03 22:42:00,59.0,48.0,30.08,North,-999,-999.0,-999.0,66,-99.99,,,-99.99,1420.000000,,2013-08-04 03:42:00,
2013-08-03 22:52:00,59.0,48.0,30.08,North,-999,-999.0,-999.0,66,-99.99,,,-99.99,1420.000000,,2013-08-04 03:52:00,
2013-08-03 23:03:00,59.0,48.0,30.08,North,-999,-999.0,-999.0,66,-99.99,,,-99.99,1420.000000,,2013-08-04 04:03:00,
2013-08-03 23:12:00,59.0,48.0,30.08,North,-999,-999.0,-999.0,66,-99.99,,,-99.99,1420.000000,,2013-08-04 04:12:00,
2013-08-03 23:52:00,55.0,47.0,30.11,North,-999,-999.0,-999.0,74,-99.99,,,-99.99,1420.000000,,2013-08-04 04:52:00,